Weather History for Three Rivers, MI

Change the Weather History Date:

Sunday, January 13, 2013

  Actual Average Record
Temperature  
Mean Temperature 30 °F -  
Max Temperature 37 °F 30 °F 61 °F (1950)
Min Temperature 23 °F 15 °F -11 °F (1977)
Degree Days  
Heating Degree Days 34    
Moisture  
Dew Point 31 °F    
Average Humidity 91    
Maximum Humidity 94    
Minimum Humidity 82    
Precipitation  
Precipitation 0.00 in - - ()
Sea Level Pressure  
Sea Level Pressure 29.93 in    
Wind  
Wind Speed 8 mph (NW)    
Max Wind Speed 17 mph    
Max Gust Speed 25 mph    
Visibility 5 miles    
Events Rain , Snow    
Averages and records for this station are not official NWS values.
T = Trace of Precipitation, MM = Missing Value Source: NWS Daily Summary

Daily Weather History Graph

Daily Weather History Graph

Search for Another Location

Airport:

Trip Planner

Search our weather history database for the weather conditions in past years. The results will help you decide how hot, cold, wet, or windy it might be!

Date:

Astronomy

Jan. 13, 2013 Rise Set
Actual Time 8:08 AM EST 5:34 PM EST
Civil Twilight 7:37 AM EST 6:05 PM EST
Nautical Twilight 7:03 AM EST 6:39 PM EST
Astronomical Twilight 6:29 AM EST 7:13 PM EST
Moon 9:03 AM EST (1/13) 8:15 PM EST (1/13)
Length of Visible Light 10h 27m
Length of Day
9h 25m
Waxing Crescent, 5% of the Moon is Illuminated
Jan 13
Waxing Crescent
Jan 18
First Quarter
Jan 26
Full
Feb 3
Last Quarter
Feb 10
New

Hourly Weather History & Observations

Time (EST) Temp. Windchill Dew Point Humidity Pressure Visibility Wind Dir Wind Speed Gust Speed Precip Events Conditions
12:14 AM 38.5 °F 32.7 °F 35.8 °F 90% 29.84 in 4.0 mi North 8.1 mph - N/A Rain Rain
12:35 AM 38.3 °F 33.2 °F 35.6 °F 90% 29.83 in 5.0 mi North 6.9 mph - N/A Rain Light Rain
12:55 AM 37.8 °F 31.8 °F 35.1 °F 90% 29.84 in 4.0 mi NNW 8.1 mph - N/A Rain Rain
1:14 AM 37.6 °F 30.0 °F 35.1 °F 91% 29.81 in 4.0 mi North 11.5 mph 16.1 mph N/A Rain Rain
1:35 AM 37.4 °F 29.8 °F 34.2 °F 88% 29.82 in 5.0 mi NNE 11.5 mph - N/A Rain Rain
1:55 AM 37.0 °F 31.0 °F 34.0 °F 89% 29.82 in 5.0 mi North 8.1 mph - N/A Rain Rain
2:14 AM 36.7 °F 30.5 °F 34.0 °F 90% 29.82 in 4.0 mi NNE 8.1 mph - N/A Rain Rain
2:35 AM 36.5 °F 32.7 °F 34.0 °F 91% 29.84 in 3.0 mi NNW 4.6 mph - N/A Rain Rain
2:55 AM 36.5 °F 30.3 °F 34.2 °F 91% 29.83 in 2.5 mi NNW 8.1 mph - N/A Rain Light Rain
3:15 AM 36.5 °F 29.2 °F 34.2 °F 91% 29.84 in 5.0 mi North 10.4 mph - N/A Rain Light Rain
3:35 AM 36.5 °F 29.7 °F 34.0 °F 91% 29.85 in 5.0 mi NNW 9.2 mph - N/A Rain Rain
3:54 AM 36.0 °F 30.3 °F 33.4 °F 91% 29.85 in 5.0 mi North 6.9 mph - N/A Rain Light Rain
4:15 AM 35.8 °F 30.9 °F 33.3 °F 91% 29.84 in 7.0 mi North 5.8 mph - N/A Rain Light Rain
4:34 AM 35.6 °F 30.7 °F 33.3 °F 91% 29.84 in 7.0 mi North 5.8 mph - N/A   Overcast
4:55 AM 35.8 °F 30.9 °F 33.4 °F 91% 29.85 in 5.0 mi NNW 5.8 mph - N/A   Light Drizzle
5:15 AM 35.6 °F 30.7 °F 33.3 °F 91% 29.83 in 7.0 mi North 5.8 mph - N/A   Overcast
5:34 AM 35.2 °F - 32.9 °F 91% 29.82 in 7.0 mi Calm Calm - N/A   Overcast
5:55 AM 35.6 °F 30.7 °F 33.4 °F 92% 29.82 in 7.0 mi NNW 5.8 mph - N/A   Overcast
6:15 AM 35.8 °F 31.9 °F 33.4 °F 91% 29.84 in 7.0 mi North 4.6 mph - N/A   Overcast
6:34 AM 35.6 °F - 33.4 °F 92% 29.84 in 4.0 mi Calm Calm - N/A   Drizzle
6:55 AM 35.6 °F - 33.6 °F 92% 29.83 in 4.0 mi Calm Calm - N/A Rain Light Rain
7:15 AM 36.1 °F - 34.0 °F 92% 29.85 in 4.0 mi Calm Calm - N/A   Overcast
7:34 AM 36.7 °F - 34.2 °F 91% 29.87 in 5.0 mi Calm Calm - N/A Rain Light Rain
7:55 AM 36.5 °F 31.8 °F 34.2 °F 91% 29.88 in 2.5 mi West 5.8 mph - N/A   Light Drizzle
8:14 AM 36.0 °F 32.1 °F 34.0 °F 93% 29.89 in 1.8 mi West 4.6 mph - N/A Rain Light Rain
8:35 AM 36.0 °F 32.1 °F 34.0 °F 93% 29.90 in 2.0 mi West 4.6 mph - N/A Rain Light Rain
8:55 AM 36.0 °F 31.1 °F 34.2 °F 93% 29.90 in 1.2 mi West 5.8 mph - N/A Rain Light Rain
9:14 AM 35.8 °F 30.1 °F 34.0 °F 93% 29.91 in 1.5 mi WNW 6.9 mph - N/A   Overcast
9:35 AM 35.6 °F 29.9 °F 33.8 °F 93% 29.92 in 1.5 mi WNW 6.9 mph - N/A   Overcast
9:55 AM 35.6 °F 29.2 °F 33.8 °F 93% 29.92 in 1.5 mi WNW 8.1 mph - N/A   Overcast
10:14 AM 35.6 °F 29.2 °F 33.8 °F 93% 29.92 in 1.2 mi WNW 8.1 mph - N/A   Overcast
10:35 AM 35.6 °F 29.2 °F 33.8 °F 93% 29.93 in 1.5 mi WNW 8.1 mph - N/A   Overcast
10:55 AM 35.6 °F 29.9 °F 33.8 °F 93% 29.93 in 1.8 mi NW 6.9 mph - N/A   Overcast
11:14 AM 36.0 °F 32.1 °F 34.0 °F 93% 29.92 in 2.5 mi NNW 4.6 mph - N/A   Overcast
11:35 AM 35.6 °F - 33.6 °F 92% 29.90 in 3.0 mi Calm Calm - N/A   Overcast
11:55 AM 35.8 °F 28.8 °F 33.8 °F 92% 29.94 in 5.0 mi WNW 9.2 mph - N/A   Overcast
12:15 PM 36.5 °F 29.7 °F 34.0 °F 91% 29.94 in 2.5 mi NW 9.2 mph - N/A   Overcast
12:35 PM 35.4 °F 29.0 °F 32.9 °F 91% 29.92 in 3.0 mi NW 8.1 mph - N/A   Overcast
12:54 PM 35.1 °F 29.3 °F 32.2 °F 89% 29.90 in 7.0 mi NNW 6.9 mph - N/A   Overcast
1:15 PM 34.7 °F 27.5 °F 32.0 °F 90% 29.88 in 10.0 mi NNW 9.2 mph - N/A   Overcast
1:55 PM 34.2 °F 26.8 °F 32.0 °F 92% 29.87 in 10.0 mi NNW 9.2 mph - N/A   Overcast
2:15 PM 33.4 °F 23.5 °F 31.1 °F 91% 29.92 in 10.0 mi NW 15.0 mph 21.9 mph N/A   Overcast
2:34 PM 32.9 °F 23.7 °F 30.2 °F 90% 29.91 in 10.0 mi NW 12.7 mph 18.4 mph N/A   Overcast
2:55 PM 32.9 °F 25.3 °F 30.6 °F 91% 29.95 in 1.8 mi NW 9.2 mph - N/A Snow Light Snow
3:15 PM 32.2 °F 27.7 °F 30.2 °F 92% 29.96 in 1.8 mi NW 4.6 mph - N/A Snow Light Snow
3:34 PM 32.4 °F 27.9 °F 30.6 °F 93% 29.95 in 1.2 mi NW 4.6 mph - N/A Snow Light Snow
3:55 PM 32.0 °F 26.4 °F 30.0 °F 92% 29.93 in 2.5 mi NNW 5.8 mph - N/A Snow Light Snow
4:15 PM 32.0 °F 27.5 °F 30.2 °F 93% 29.97 in 4.0 mi West 4.6 mph - N/A Snow Light Snow
4:34 PM 32.4 °F 29.1 °F 30.9 °F 94% 29.94 in 1.2 mi NW 3.5 mph - N/A Snow Light Snow
4:55 PM 32.2 °F - 30.6 °F 94% 29.95 in 3.0 mi Calm Calm - N/A Snow Light Snow
5:15 PM 32.0 °F 27.5 °F 30.0 °F 92% 29.96 in 2.5 mi West 4.6 mph - N/A Snow Light Snow
5:34 PM 32.0 °F 28.7 °F 30.2 °F 93% 29.95 in 1.8 mi NW 3.5 mph - N/A Snow Light Snow
5:55 PM 31.5 °F 24.9 °F 29.7 °F 93% 29.96 in 2.0 mi WNW 6.9 mph - N/A Snow Light Snow
6:15 PM 31.1 °F 26.4 °F 29.3 °F 93% 29.97 in 3.0 mi West 4.6 mph - N/A Snow Light Snow
6:35 PM 31.1 °F 23.1 °F 29.3 °F 93% 29.99 in 7.0 mi WNW 9.2 mph - N/A   Overcast
6:55 PM 31.1 °F 20.9 °F 28.9 °F 92% 30.00 in 7.0 mi West 13.8 mph 17.3 mph N/A   Overcast
7:15 PM 30.4 °F 20.0 °F 27.9 °F 90% 30.01 in 10.0 mi WNW 13.8 mph - N/A   Overcast
7:35 PM 30.2 °F 20.8 °F 27.5 °F 90% 30.01 in 10.0 mi West 11.5 mph 18.4 mph N/A   Overcast
7:55 PM 29.8 °F 20.3 °F 27.3 °F 90% 30.03 in 7.0 mi West 11.5 mph - N/A   Overcast
8:14 PM 29.1 °F 17.5 °F 26.4 °F 90% 30.03 in 7.0 mi West 16.1 mph 19.6 mph N/A   Overcast
8:35 PM 28.9 °F 17.7 °F 26.2 °F 90% 30.04 in 7.0 mi WNW 15.0 mph - N/A   Overcast
8:55 PM 28.9 °F 18.6 °F 26.1 °F 89% 30.05 in 7.0 mi West 12.7 mph 17.3 mph N/A   Overcast
9:14 PM 28.4 °F 16.6 °F 25.2 °F 88% 30.05 in 7.0 mi West 16.1 mph 19.6 mph N/A   Overcast
9:35 PM 28.2 °F 16.8 °F 24.6 °F 86% 30.06 in 10.0 mi West 15.0 mph 19.6 mph N/A   Overcast
9:55 PM 27.5 °F 16.3 °F 23.5 °F 85% 30.06 in 10.0 mi West 13.8 mph 20.7 mph N/A   Overcast
10:14 PM 27.1 °F 14.5 °F 22.8 °F 84% 30.07 in 10.0 mi West 17.3 mph 24.2 mph N/A   Overcast
10:35 PM 26.4 °F 13.6 °F 22.1 °F 84% 30.08 in 10.0 mi WNW 17.3 mph 25.3 mph N/A   Overcast
10:55 PM 25.9 °F 15.3 °F 21.6 °F 84% 30.10 in 10.0 mi WNW 11.5 mph 23.0 mph N/A   Overcast
11:15 PM 24.8 °F 11.5 °F 20.3 °F 83% 30.11 in 10.0 mi WNW 17.3 mph 24.2 mph N/A   Overcast
11:35 PM 23.9 °F 11.7 °F 19.0 °F 82% 30.12 in 10.0 mi WNW 13.8 mph 19.6 mph N/A   Overcast
11:54 PM 23.5 °F 13.0 °F 19.2 °F 84% 30.12 in 10.0 mi WNW 10.4 mph 17.3 mph N/A   Overcast